This demonstration page uses our WeatherBlox Daily Observations layout. Learn more.

Left ArrowRight Arrow

41.55636, -103.73856

Hourly Observations for May 12, 2020

Temp ( °F °C ) Dew Point ( °F °C ) Humidity (%) Winds ( mph kmh ) Pressure ( in mb ) Visibility ( mi km ) Precip ( " mm )
12:58 am 00:58 Cloudy 36 2.4 34 1.2 92 92 SSE 15 24 30.14 1021 10 16 N/A
2:58 am 02:58 Cloudy 35 1.8 34 0.9 94 94 SSE 18 30 30.12 1020 10 16 N/A
3:58 am 03:58 Cloudy 35 1.9 34 0.9 93 93 SSE 15 24 30.13 1020 10 16 N/A
4:58 am 04:58 Cloudy 36 2 34 1.1 94 94 S 14 22 30.15 1021 10 16 N/A
5:58 am 05:58 Cloudy 35 1.8 34 1.1 95 95 S 12 19 30.13 1020 10 16 N/A
6:58 am 06:58 Cloudy 35 1.8 34 1.1 95 95 S 15 24 30.12 1020 7 11 N/A
7:58 am 07:58 Cloudy 35 1.8 34 0.9 94 94 S 10 17 30.10 1019 10 16 N/A
8:58 am 08:58 Mostly Cloudy 35 1.8 34 0.9 94 94 S 14 22 30.08 1019 10 16 N/A
9:58 am 09:58 Mostly Cloudy with Light Showers 35 1.8 34 1.1 95 95 S 18 30 30.06 1018 10 16 N/A
10:58 am 10:58 Windy with Rain Showers Likely 35 1.8 34 1.1 95 95 S 23 37 30.04 1017 10 16 0.01 0.25
11:58 am 11:58 Mostly Cloudy 36 2 34 1.2 95 95 S 18 30 30.05 1018 10 16 0.01 0.25
12:58 pm 12:58 Cloudy 36 2.2 35 1.6 96 96 S 9 15 30.05 1018 10 16 N/A
1:58 pm 13:58 Cloudy 37 2.6 35 1.8 95 95 S 17 28 30.04 1017 10 16 N/A
2:58 pm 14:58 Cloudy 39 3.8 37 2.8 93 93 S 18 30 30.03 1017 10 16 N/A
3:58 pm 15:58 Cloudy 40 4.6 38 3.2 91 91 S 15 24 30.02 1017 10 16 N/A
4:58 pm 16:58 Cloudy 43 6.3 39 3.8 84 84 S 16 26 29.98 1015 10 16 N/A
5:58 pm 17:58 Mostly Cloudy 48 9.1 40 4.3 72 72 S 21 33 29.93 1014 10 16 N/A
6:58 pm 18:58 Mostly Sunny 56 13.3 41 4.8 57 57 S 23 37 29.87 1011 10 16 N/A
7:58 pm 19:58 Sunny 57 13.8 40 4.5 54 54 S 28 44 29.82 1010 10 16 N/A
8:58 pm 20:58 Sunny 59 14.8 40 4.6 51 51 S 26 43 29.80 1009 10 16 N/A
9:58 pm 21:58 Sunny 58 14.4 40 4.7 52 52 SSE 24 39 29.80 1009 10 16 N/A
10:58 pm 22:58 Sunny 56 13.3 40 4.7 56 56 SSE 22 35 29.80 1009 10 16 N/A
11:58 pm 23:58 Partly Cloudy 54 12.2 41 5 62 62 SSE 25 41 29.78 1009 10 16 N/A

Powered by AerisWeather